Lapse_Rate
5.4 5.8 5.7 5.7 5.7 6.0 5.5 5.6 5.6 5.6 5.7 5.7 5.6 5.6 5.5 5.3 5.2 5.0 4.8 4.5 4.3 4.1 3.9 3.5 3.4 3.7 3.6 3.2 3.2 3.0 3.0 2.9 3.1 3.5 3.6 4.3 4.5 5.2 5.7 6.6 7.2 7.4 7.9 8.2 8.0 7.8 7.9 8.1 7.9 8.1 7.8 8.1 8.1 8.1
5.1 5.5 6.0 6.7 5.9 5.5 5.9 5.5 5.3 5.4 5.7 5.6 5.6 5.4 5.5 5.0 4.7 4.5 4.4 4.1 3.7 3.5 3.3 3.3 3.2 3.3 3.4 3.6 3.5 3.2 3.2 3.2 3.3 3.6 4.0 4.7 5.4 6.1 6.9 7.0 8.1 8.5 8.3 8.1 8.3 8.4 8.6 8.4 8.4 8.3 8.3 8.1 8.1 7.6
5.6 5.9 6.0 6.2 6.2 5.5 5.9 6.3 5.8 5.5 5.3 5.3 4.9 4.7 4.9 4.6 4.3 3.9 3.7 3.5 3.5 3.7 3.7 3.6 3.4 3.4 3.5 3.6 3.7 3.7 3.8 4.0 3.8 4.6 5.1 5.8 6.2 7.0 7.2 7.6 8.0 8.2 8.4 8.4 8.4 8.5 8.7 8.7 8.5 8.1 7.6 7.6 7.5 7.4
6.0 5.3 5.8 6.2 6.5 6.1 5.9 5.4 5.4 5.4 4.9 4.5 4.4 4.5 4.2 4.1 4.0 3.8 3.6 3.6 3.8 3.6 3.6 3.2 3.3 3.5 3.8 3.9 4.0 4.4 4.4 4.9 5.3 6.3 6.8 7.0 6.9 7.3 7.4 7.6 7.9 8.2 8.1 8.1 8.1 8.3 8.2 8.1 7.3 7.2 7.2 7.2 7.0 6.9
5.4 5.2 5.2 5.2 5.8 5.5 5.0 5.7 5.1 4.9 4.2 3.8 4.4 4.0 3.7 3.7 3.6 3.7 3.7 3.5 3.4 3.8 3.4 3.4 3.5 4.1 4.1 4.6 5.3 5.4 5.6 6.0 6.5 6.8 7.0 7.0 7.0 6.9 7.1 7.2 7.4 7.4 7.4 7.4 7.6 7.6 7.6 7.4 6.8 6.8 7.2 7.3 7.1 7.0
5.8 5.9 5.4 5.4 4.5 4.6 5.0 4.9 4.8 4.5 4.8 4.0 3.7 3.9 3.9 3.8 3.7 3.7 3.6 3.4 3.4 3.7 3.8 3.6 4.1 4.5 4.8 5.3 5.7 5.9 6.2 6.6 6.8 7.0 7.1 6.9 6.4 6.5 6.6 6.8 7.6 7.2 7.0 6.9 7.0 7.0 7.1 7.0 6.9 7.1 7.2 7.0 7.1 7.0
4.8 4.5 4.1 4.9 5.3 5.4 5.1 4.6 4.6 4.5 4.3 3.9 3.9 3.5 3.3 3.2 3.8 4.1 4.0 4.1 3.8 3.8 3.9 4.0 4.4 5.1 5.6 6.0 6.4 6.6 6.9 6.9 6.7 6.4 6.6 6.3 6.4 6.1 6.2 6.8 7.2 6.9 6.9 6.9 7.1 7.0 7.0 7.0 7.2 7.3 7.2 7.2 7.1 7.2
5.1 5.3 5.3 5.3 4.8 5.1 4.7 4.6 4.2 3.8 3.8 3.7 3.7 3.9 4.0 4.0 4.2 4.3 4.4 4.5 4.5 4.5 5.0 4.9 5.6 5.9 6.4 6.9 6.8 6.8 6.7 6.5 6.5 6.2 6.4 6.5 6.3 6.2 6.6 7.2 7.1 6.8 6.8 7.0 6.9 7.0 7.0 7.0 7.1 7.2 7.3 7.4 7.3 7.3
4.9 4.8 4.7 4.8 4.8 4.5 4.3 4.3 4.0 4.2 4.2 4.3 4.4 4.5 4.6 4.8 5.0 5.0 5.2 5.2 5.1 5.7 6.4 6.3 6.4 6.6 6.9 6.9 6.6 6.6 6.6 6.6 6.4 6.7 6.8 6.6 6.7 6.7 7.5 7.1 6.7 6.9 6.9 7.1 7.0 7.1 7.2 7.3 7.2 7.3 7.2 7.2 7.2 7.2
5.1 4.9 4.8 4.8 4.8 4.7 4.9 4.9 5.1 5.2 5.3 5.3 5.1 5.1 5.2 5.3 5.7 5.8 5.8 6.1 6.2 6.5 6.8 7.0 6.9 6.6 6.7 6.5 6.5 6.5 6.5 6.5 6.4 6.9 6.8 6.9 7.5 7.6 7.5 6.8 7.0 7.1 7.1 7.1 7.3 7.3 7.2 7.2 7.2 7.1 7.2 7.3 7.4 7.4
5.1 5.1 5.2 5.5 5.7 5.8 5.7 5.6 5.7 5.8 5.7 5.5 5.6 5.9 6.0 6.0 6.2 6.4 6.4 6.5 6.8 6.8 6.6 6.7 6.5 6.5 6.7 6.7 6.6 6.5 6.5 6.6 6.6 6.9 6.8 6.7 7.2 7.6 7.5 7.7 7.6 7.2 7.2 7.3 7.4 7.5 7.5 7.4 7.3 7.3 7.2 7.2 7.3 7.1
5.6 5.6 5.7 5.7 5.7 5.8 5.8 5.7 5.7 5.8 5.9 6.3 6.4 6.3 6.4 6.4 6.6 6.5 6.5 6.5 6.4 6.3 6.2 6.2 6.5 6.6 6.6 6.6 6.8 6.6 6.7 6.8 7.1 6.9 7.0 6.9 7.3 7.4 7.4 7.5 7.3 7.2 7.1 7.1 7.0 7.0 7.1 7.2 7.2 7.3 7.2 7.2 7.3 7.3
5.6 5.6 5.5 5.4 5.3 5.4 5.5 5.8 6.0 6.1 6.2 6.4 6.5 6.6 6.6 6.5 6.4 6.3 6.1 6.0 5.9 6.1 6.3 6.4 6.4 6.5 6.4 6.4 6.5 6.7 6.7 7.0 7.1 7.2 7.4 7.3 7.6 7.5 7.2 7.4 7.2 7.0 7.0 6.7 6.7 7.0 7.1 7.1 7.2 7.2 7.2 7.1 7.2 7.2
5.5 5.5 5.6 5.6 5.6 5.7 5.7 5.8 6.0 6.1 6.3 6.5 6.5 6.4 6.2 6.1 6.0 5.6 5.9 6.0 6.1 6.2 6.3 6.5 6.5 6.5 6.6 6.6 6.8 7.0 7.1 7.2 7.5 7.7 7.9 7.9 7.8 7.5 7.2 7.1 6.9 6.8 6.9 6.9 6.8 6.9 7.0 7.2 7.3 7.2 7.3 7.4 7.4 7.4
5.2 5.3 5.4 5.5 5.6 5.6 5.7 5.8 5.9 6.0 6.2 6.3 6.2 6.2 6.1 6.2 6.1 6.2 6.3 6.3 6.4 6.4 6.4 6.5 6.6 6.6 6.7 6.9 7.0 7.2 7.4 7.6 8.0 8.0 7.8 7.7 7.7 7.3 7.1 7.0 6.8 6.9 7.1 7.3 7.2 7.2 7.3 7.3 7.4 7.4 7.3 7.1 7.1 7.2
5.4 5.4 5.4 5.4 5.5 5.6 5.8 6.0 6.1 6.3 6.4 6.3 6.3 6.4 6.5 6.5 6.5 6.6 6.6 6.5 6.4 6.5 6.5 6.4 6.6 6.7 6.8 7.1 7.1 7.6 7.7 8.1 8.1 8.0 8.0 7.9 7.8 7.6 7.2 7.1 7.1 7.0 6.8 6.9 6.9 7.0 7.1 7.1 7.0 7.1 7.1 6.9 7.0 6.9
5.3 5.5 5.6 5.6 5.7 5.8 5.9 6.2 6.4 6.6 6.5 6.4 6.4 6.5 6.5 6.5 6.5 6.7 6.7 6.6 6.6 6.6 6.6 6.5 6.7 6.9 7.0 7.1 7.3 7.8 7.7 7.7 7.8 7.8 7.7 7.8 7.8 7.7 7.6 7.6 7.5 7.3 7.2 7.2 7.0 6.9 6.9 6.8 6.8 6.8 6.7 6.6 6.6 6.6
5.2 5.3 5.4 5.4 5.5 5.7 5.9 6.2 6.4 6.5 6.5 6.5 6.4 6.6 6.6 6.6 6.7 6.8 6.9 6.8 6.7 6.6 6.6 6.6 6.7 7.0 7.3 7.4 7.5 7.7 7.8 7.7 7.8 7.6 7.6 7.6 7.5 7.6 7.5 7.3 7.2 7.1 7.0 6.9 6.9 6.8 6.7 6.7 6.6 6.5 6.5 6.4 6.4 6.4
5.0 5.0 5.0 5.1 5.3 5.5 5.8 6.0 6.3 6.4 6.4 6.5 6.5 6.7 6.8 7.0 7.0 7.1 7.1 6.9 6.8 6.5 6.5 6.6 6.8 7.1 7.2 7.3 7.4 7.5 7.5 7.6 7.6 7.6 7.5 7.5 7.3 7.0 6.8 6.9 6.8 6.7 6.7 6.7 6.6 6.5 6.4 6.4 6.3 6.1 6.2 6.1 5.9 5.8
4.8 4.9 5.0 5.0 5.1 5.3 5.6 5.8 6.0 6.2 6.2 6.4 6.6 6.8 7.0 7.1 7.2 7.2 7.2 7.0 6.4 6.5 6.3 6.4 7.1 7.1 6.9 7.0 7.3 7.3 7.3 7.4 7.4 7.5 7.5 7.4 7.0 6.7 6.6 6.5 6.4 6.3 6.1 5.9 5.8 5.7 5.7 5.6 5.6 5.7 5.5 5.6 5.5 5.5
4.8 4.9 4.9 5.0 5.1 5.1 5.2 5.4 5.7 5.8 6.0 6.3 6.5 6.8 7.1 7.1 7.3 7.2 7.2 6.5 6.5 6.9 7.0 7.0 6.8 6.9 6.9 7.1 7.4 7.4 7.4 7.5 7.5 7.4 7.2 7.1 6.9 6.5 6.3 6.1 6.1 5.9 6.0 5.8 5.7 5.6 5.6 5.6 5.5 5.7 5.7 5.7 5.6 5.7
4.7 4.9 4.9 5.0 5.0 5.0 5.2 5.4 5.3 5.7 5.8 6.1 6.5 6.7 6.9 7.0 7.1 7.2 7.0 6.9 7.0 7.2 7.0 7.1 6.8 6.8 7.3 7.4 7.2 7.3 7.3 7.3 7.1 6.9 6.8 6.3 6.1 5.8 5.7 5.6 5.7 5.6 5.7 5.9 5.9 5.9 6.1 6.3 6.3 6.2 6.2 6.2 6.2 6.1
4.8 4.8 4.9 4.8 4.8 5.0 5.0 5.2 5.4 5.6 5.8 6.1 6.3 6.6 6.7 6.7 7.0 7.1 7.0 7.2 7.4 7.3 7.0 6.9 7.0 7.1 7.2 7.1 7.1 7.1 7.2 7.2 6.8 6.3 5.7 5.5 5.4 5.4 5.4 5.6 5.8 6.0 6.1 6.2 6.2 6.3 6.3 6.3 6.3 6.3 6.2 6.2 6.2 6.3
4.6 4.7 4.7 4.7 4.8 4.9 5.0 5.2 5.4 5.6 5.8 6.1 6.3 6.4 6.4 6.5 6.7 6.8 6.9 7.2 7.5 7.3 7.1 7.0 6.9 6.8 6.9 7.0 6.9 7.3 7.1 6.6 6.1 5.7 5.5 5.2 5.6 5.9 6.0 6.0 6.1 6.0 5.9 5.9 6.0 6.1 6.1 6.0 6.0 6.1 6.2 6.2 6.2 6.3
4.2 4.5 4.5 4.7 4.7 4.8 4.9 5.2 5.4 5.4 5.8 5.9 6.0 6.1 6.2 6.4 6.4 6.6 7.0 7.4 7.2 6.9 6.7 6.5 6.5 6.5 6.5 6.8 6.8 6.8 6.5 6.1 5.7 5.2 5.2 5.5 5.6 5.7 5.8 5.8 5.8 5.8 5.7 5.9 5.8 5.7 5.8 6.0 6.1 6.1 6.2 6.2 6.2 6.3
4.3 4.4 4.5 4.7 4.9 4.9 5.0 5.2 5.4 5.5 5.6 5.7 5.8 5.9 6.2 6.1 6.3 6.6 7.0 6.8 6.6 6.4 6.2 6.2 6.2 6.2 6.3 6.6 6.6 6.5 6.1 5.8 5.4 5.4 5.4 5.5 5.5 5.4 5.4 5.4 5.6 5.8 5.8 5.6 5.7 5.8 6.0 6.1 6.2 6.2 6.4 6.4 6.4 6.5
4.2 4.7 4.9 4.9 4.9 5.0 5.0 5.1 5.1 5.3 5.4 5.6 5.7 5.8 5.8 6.1 6.5 6.9 6.7 6.3 6.2 6.3 6.3 6.3 6.2 6.1 6.2 6.3 6.4 6.2 5.9 5.6 5.2 5.4 5.5 5.4 5.3 5.2 5.3 5.3 5.4 5.5 5.6 5.7 5.8 5.9 6.0 6.1 6.2 6.3 6.6 6.7 6.6 6.7
4.2 4.6 4.7 4.8 4.7 4.7 4.7 4.8 4.8 5.0 5.3 5.5 5.5 5.8 5.9 6.1 6.4 6.3 6.2 6.3 6.3 6.3 6.2 6.5 6.4 6.2 6.2 6.3 6.2 5.8 5.6 5.3 5.2 5.3 5.5 5.2 4.9 5.2 5.5 5.6 5.6 5.6 5.6 5.5 5.6 5.8 5.9 6.1 6.3 6.4 6.6 6.9 7.0 6.9
4.6 4.6 4.5 4.6 4.6 4.5 4.6 5.0 5.4 5.4 5.4 5.5 5.7 5.8 6.0 6.2 6.3 6.6 6.6 6.6 6.5 6.6 6.6 6.5 6.3 6.1 6.2 6.0 5.8 5.6 5.4 5.1 5.2 5.6 5.7 5.6 5.8 5.9 6.0 6.0 5.9 5.9 5.8 5.8 5.7 5.8 6.0 6.2 6.4 6.6 6.8 7.0 7.1 7.2
4.9 4.5 4.6 5.0 5.0 5.2 5.3 5.2 5.5 5.6 5.4 5.3 5.4 5.7 6.0 6.3 6.5 6.4 6.5 6.6 6.7 6.7 6.6 6.4 6.2 6.0 5.8 5.7 5.6 5.4 5.3 5.0 5.1 5.6 5.7 5.7 6.0 6.0 6.1 6.3 6.3 6.2 6.1 6.1 6.1 6.0 6.0 6.1 6.3 6.5 6.7 7.0 7.2 7.2
4.9 4.8 4.8 5.1 5.4 5.3 5.2 5.3 5.4 5.5 5.6 5.6 5.6 5.7 5.9 6.2 6.5 6.4 6.4 6.5 6.5 6.5 6.5 6.3 6.1 5.8 5.5 5.3 5.4 5.2 5.1 4.9 5.1 5.6 5.6 5.8 6.1 6.2 6.2 6.4 6.4 6.4 6.4 6.4 6.4 6.4 6.4 6.4 6.5 6.6 6.8 7.0 7.1 7.2
4.6 4.7 4.8 5.1 5.4 5.3 5.2 5.4 5.5 5.8 6.0 6.1 6.1 6.0 6.1 6.2 6.4 6.5 6.4 6.4 6.5 6.3 6.3 6.2 6.1 5.7 5.4 5.1 5.2 5.2 4.9 4.8 5.1 5.8 5.9 6.2 6.2 6.3 6.4 6.5 6.6 6.6 6.6 6.7 6.7 6.7 6.6 6.7 6.7 6.8 6.9 7.0 7.1 7.2
4.3 4.4 4.6 4.8 5.1 5.3 5.3 5.3 5.6 5.9 6.2 6.3 6.4 6.3 6.3 6.3 6.3 6.3 6.2 6.2 6.2 6.1 6.2 6.1 5.9 5.7 5.2 4.9 4.9 5.1 5.0 5.0 5.3 5.9 6.0 6.2 6.3 6.4 6.4 6.6 6.6 6.7 6.8 6.8 6.8 6.8 6.8 6.8 6.9 6.9 7.0 7.1 7.2 7.2
Wind_Speed
30 34 35 36 32 33 28 28 27 27 25 23 22 20 17 16 11 4 2 4 3 3 3 7 6 4 3 2 3 4 4 2 2 2 2 3 2 3 3 5 5 3 3 2 2 2 5 10 7 6 7 3 3 4
36 36 37 37 34 31 33 30 30 27 26 23 20 19 18 14 8 6 3 2 2 4 3 3 5 7 6 5 5 1 5 4 4 2 0 1 2 1 5 3 5 2 1 2 5 4 8 2 6 3 3 3 3 3
35 36 37 36 34 32 32 31 29 26 23 21 21 19 18 17 16 7 3 1 3 3 3 4 4 3 6 5 3 4 2 2 2 3 3 3 1 1 2 4 5 3 4 2 3 3 5 7 4 5 3 2 6 6
37 36 35 35 33 32 31 29 29 26 24 22 22 23 20 14 18 13 4 3 3 3 4 2 0 5 3 4 4 4 3 5 3 3 1 2 2 2 2 5 5 4 4 4 5 6 4 4 4 3 3 7 9 10
36 35 34 33 34 34 32 31 28 26 23 22 24 21 19 17 14 12 6 5 4 3 3 3 5 2 4 2 2 3 3 2 1 1 2 2 2 2 4 3 6 2 2 2 5 5 3 2 7 2 2 6 9 5
35 33 33 34 34 33 32 30 27 24 25 21 19 18 14 11 6 5 4 4 10 3 4 2 1 4 3 2 2 3 2 2 2 2 2 3 3 2 1 3 4 3 5 6 1 2 0 4 7 6 5 4 5 5
31 32 33 32 32 32 29 27 25 23 19 17 17 17 17 21 8 4 3 3 11 3 3 3 2 2 6 4 1 1 2 1 2 3 3 3 3 3 3 8 12 11 13 3 5 3 1 5 3 2 5 5 7 6
32 33 32 31 29 30 28 25 22 19 17 15 14 15 18 24 16 5 4 8 10 2 2 2 2 2 2 2 1 1 1 2 2 3 2 1 2 2 3 7 10 7 3 5 4 1 4 3 2 5 5 6 6 6
32 31 31 29 29 28 26 20 19 16 14 12 9 7 3 3 3 1 5 9 6 3 2 1 3 2 1 2 2 1 2 2 3 3 3 3 3 5 7 9 6 5 3 4 1 4 3 5 4 6 5 3 3 4
31 31 30 28 26 25 19 17 15 10 8 7 2 4 3 1 1 1 2 3 3 3 2 0 1 0 3 2 2 2 2 3 2 5 3 2 4 11 8 6 8 6 6 5 4 3 3 4 3 3 4 5 5 3
29 28 27 25 24 19 16 14 7 8 6 2 2 2 2 3 1 2 1 3 0 1 1 3 3 2 1 2 2 2 2 2 2 4 4 3 3 5 7 10 9 7 6 5 5 3 2 2 4 5 6 2 5 5
28 27 25 23 20 18 15 7 6 2 2 2 4 4 2 1 2 4 1 1 2 3 2 3 3 3 1 2 1 3 2 1 4 3 2 3 2 7 11 11 7 6 5 4 3 4 5 5 5 4 5 5 4 4
26 25 23 20 18 13 10 10 10 7 5 2 3 3 3 1 3 3 3 2 1 1 1 1 1 2 2 3 1 2 2 4 1 1 3 3 6 7 8 7 8 7 4 1 3 5 4 4 5 5 4 4 6 5
23 21 18 16 14 12 11 10 10 6 1 2 2 3 2 1 3 2 2 2 2 3 1 1 1 2 2 1 2 2 4 2 3 2 2 1 2 2 4 4 2 2 5 5 4 4 3 4 3 4 4 5 4 5
18 16 14 10 9 7 5 4 4 1 2 2 2 2 3 2 3 2 2 3 4 3 2 2 1 2 2 0 2 2 3 4 2 2 1 0 3 3 2 2 4 4 4 5 5 4 4 5 3 4 6 5 5 5
9 6 3 11 6 1 3 5 2 1 2 1 1 0 2 2 2 2 2 2 4 3 2 2 1 1 4 3 3 5 3 2 1 1 1 2 5 5 5 4 4 3 4 5 5 5 4 3 4 6 6 7 3 2
2 1 6 6 4 2 0 1 1 2 2 2 1 1 2 0 1 1 2 2 2 3 1 0 1 6 2 2 3 3 1 3 2 1 2 4 3 2 1 2 2 4 4 5 4 5 5 5 5 6 7 5 1 4
1 4 5 5 4 2 1 1 2 2 2 3 1 3 2 3 2 2 2 2 1 2 2 1 3 2 3 2 3 2 3 2 2 2 2 4 4 2 2 1 2 4 5 4 4 4 5 5 5 4 5 3 4 4
6 7 8 7 4 1 2 2 1 1 2 1 1 1 2 3 3 4 4 4 4 3 1 2 4 3 3 2 1 1 2 1 1 2 3 2 3 3 3 4 5 6 6 5 4 4 3 5 5 4 3 4 3 3
4 5 4 5 6 3 2 1 2 1 2 2 2 2 3 3 3 3 4 4 3 2 3 3 3 3 2 1 1 2 0 1 2 2 3 1 2 2 4 5 2 4 5 6 4 5 4 4 3 4 4 3 2 3
2 2 2 2 2 3 2 2 3 3 3 2 3 1 3 2 2 2 2 3 2 3 3 4 1 2 3 2 3 0 1 1 1 0 2 2 2 2 3 2 3 3 3 4 4 4 3 2 2 3 2 2 2 2
2 2 1 2 1 2 1 2 3 4 2 2 3 1 2 2 2 3 3 2 3 4 3 2 2 2 2 1 1 4 3 1 3 3 3 3 2 1 2 1 2 2 2 2 3 3 2 2 2 2 2 3 4 4
2 1 1 2 1 2 4 3 1 2 2 2 2 2 2 1 2 2 1 3 2 1 2 3 3 2 0 3 4 5 5 3 1 2 3 1 1 2 2 2 2 2 3 3 2 2 3 5 5 3 3 4 5 6
1 1 1 2 4 3 1 1 2 2 2 2 2 2 2 1 1 1 3 2 1 2 2 3 2 1 2 3 2 3 2 3 2 1 3 3 2 2 4 2 3 2 1 3 4 4 4 3 5 5 3 4 5 6
1 4 3 4 2 3 3 3 3 2 3 3 2 3 3 1 1 3 3 2 2 2 2 3 2 3 2 2 2 5 4 3 3 2 3 5 3 3 4 4 4 3 1 3 2 3 3 3 3 4 6 5 9 11
4 5 8 6 3 3 4 3 4 5 2 2 3 1 2 1 2 4 2 2 2 2 3 3 2 1 2 3 3 4 2 3 3 2 3 4 2 1 3 3 5 2 7 3 2 3 6 5 6 8 9 10 11 12
4 5 4 4 3 3 2 1 2 2 3 4 2 2 2 2 5 4 1 2 2 1 3 3 3 3 2 2 4 3 2 3 3 1 1 2 3 2 4 4 5 4 5 4 3 3 7 9 9 10 11 11 11 11
5 3 5 5 2 1 4 2 4 4 4 3 3 4 5 6 4 1 2 1 4 4 4 4 3 3 4 3 2 3 3 2 3 2 3 3 3 3 3 2 2 8 4 3 3 4 5 7 9 10 11 12 12 12
3 3 3 3 2 2 4 6 4 3 3 3 4 3 3 1 2 3 2 3 3 3 2 4 2 3 3 2 2 2 2 1 2 3 3 3 3 4 3 3 3 4 3 4 9 10 11 10 11 10 12 11 11 11
4 3 2 4 5 5 3 3 0 2 3 1 1 2 1 1 1 2 3 3 3 3 3 3 5 3 2 3 1 2 2 4 4 3 1 2 3 3 3 3 3 3 3 5 6 7 10 9 10 7 8 8 8 9
2 4 3 3 3 3 1 2 0 1 1 1 1 1 2 2 2 2 2 2 3 4 5 4 3 3 4 3 2 2 1 1 3 2 2 1 1 2 3 3 3 3 5 5 5 7 8 7 7 8 9 11 12 10
2 4 3 3 1 2 2 2 1 2 2 4 3 2 1 1 3 1 1 3 3 3 3 5 4 3 3 3 3 3 4 1 1 2 1 1 2 2 3 3 3 3 3 4 4 7 7 8 7 8 9 11 11 11
1 1 1 1 2 3 2 1 2 2 1 1 1 2 1 1 4 1 0 2 3 4 4 3 5 5 6 6 4 3 3 3 3 0 1 2 2 2 3 3 3 3 3 4 5 5 7 7 5 7 10 9 9 10
Wind_Direction
124 120 119 115 115 108 107 106 105 101 101 100 96 94 91 100 124 75 96 26 124 97 353 42 33 37 19 96 124 154 73 345 39 80 141 247 254 272 307 334 332 328 319 286 216 275 293 185 180 145 212 235 272 306
120 120 115 106 108 110 108 105 102 102 99 96 95 92 87 90 83 82 78 301 23 85 134 79 68 46 46 47 111 74 147 144 167 117 309 20 328 282 276 264 307 296 44 233 179 234 307 129 195 245 123 187 242 274
113 108 106 109 110 105 103 106 106 105 103 100 93 85 82 86 83 93 118 5 61 85 43 53 77 37 46 51 60 120 4 47 82 152 158 210 237 64 295 279 334 294 322 281 8 236 275 293 135 138 155 221 294 306
109 110 114 110 111 109 106 108 103 100 97 92 83 67 59 81 77 73 82 333 80 118 110 259 191 68 41 53 59 67 109 34 85 76 121 168 180 227 246 244 264 231 311 264 266 279 287 310 227 207 59 347 316 326
109 108 109 111 107 107 110 105 103 99 94 86 76 69 59 61 83 78 64 27 29 118 134 161 82 55 125 67 94 104 104 108 88 1 118 235 244 288 261 254 270 193 190 223 236 267 192 281 335 276 79 300 300 290
108 110 112 112 116 113 108 106 102 97 84 80 75 66 60 47 35 65 46 358 356 6 95 115 183 157 109 176 176 195 205 197 170 154 238 240 212 88 289 271 225 300 275 270 193 55 234 324 322 36 49 337 1 338
112 113 111 110 106 105 104 103 99 92 95 91 77 67 81 80 68 70 122 241 331 1 73 74 98 224 176 176 210 143 190 249 156 240 226 218 247 168 198 257 269 282 277 139 106 75 353 37 338 338 44 21 360 12
112 109 109 105 105 101 100 101 110 112 108 108 103 94 92 106 111 45 356 348 344 26 48 89 153 123 229 192 54 337 50 29 306 222 309 254 301 175 247 250 255 237 60 89 32 179 203 277 328 43 32 17 8 359
107 105 104 105 104 106 107 119 119 119 121 119 113 108 119 29 55 242 303 318 321 118 101 84 182 200 240 184 144 306 138 234 235 199 224 126 227 226 229 242 256 99 135 142 93 71 77 79 52 38 20 356 340 309
106 106 108 110 109 109 120 120 113 128 149 150 103 58 43 45 177 238 354 31 21 333 22 112 350 187 119 160 254 109 166 231 214 221 153 190 249 240 222 241 115 135 104 109 134 98 64 53 46 333 294 276 322 23
105 105 106 107 108 120 113 101 134 193 208 203 79 84 183 176 102 40 63 66 3 22 227 239 140 157 294 114 235 187 218 227 260 246 167 227 255 235 188 120 104 109 123 132 120 114 123 254 266 271 287 48 65 42
108 109 111 111 108 101 99 71 356 34 23 120 115 91 89 79 37 74 186 221 205 182 194 129 192 166 268 101 95 283 223 15 248 143 212 273 326 68 106 118 135 130 142 131 164 203 213 246 287 359 19 48 51 11
103 104 105 106 105 103 84 68 57 23 324 46 56 66 67 328 57 147 189 231 118 93 109 77 335 157 22 37 271 312 263 236 306 91 221 15 16 45 42 51 33 7 16 345 48 31 23 20 13 25 336 325 323 310
101 99 98 97 91 79 66 50 31 347 32 82 116 110 158 168 265 180 74 52 243 89 86 135 158 160 190 144 214 251 250 316 288 247 73 75 64 104 97 88 108 63 56 17 7 6 325 324 306 294 272 267 263 264
105 109 111 105 103 84 58 19 341 291 109 103 108 134 191 242 43 63 72 28 344 354 25 21 342 127 266 247 224 267 279 254 241 39 99 164 232 224 227 116 80 42 17 352 323 321 315 297 243 270 282 270 247 241
117 123 185 157 158 129 346 331 316 299 82 70 206 32 314 55 326 31 21 337 329 317 320 90 251 327 234 216 206 221 254 274 70 32 84 52 33 25 24 15 34 15 328 303 311 319 324 335 303 297 293 306 315 332
162 89 137 141 148 120 7 300 149 83 108 275 256 95 94 61 25 333 5 251 318 318 241 155 216 227 231 228 237 218 217 197 149 184 186 151 183 237 242 304 330 323 339 10 360 347 329 324 342 340 334 316 264 289
5 72 109 147 177 150 226 254 303 143 226 221 166 211 162 162 189 276 286 276 202 243 357 252 311 267 245 261 309 9 42 40 44 19 301 279 271 159 94 8 295 290 297 293 292 297 303 313 317 300 296 324 342 334
40 75 61 45 10 296 195 177 359 306 246 247 293 280 173 190 192 192 199 231 227 228 109 331 256 226 234 49 77 168 134 89 297 278 274 270 83 92 252 253 256 269 262 265 283 291 282 315 315 303 355 17 341 10
69 73 38 13 5 308 253 134 147 313 298 259 191 225 214 200 204 186 202 212 193 122 201 222 226 242 137 116 35 336 191 227 258 319 320 80 174 229 269 284 355 349 333 331 0 360 356 340 348 3 349 356 10 340
175 94 82 327 208 265 313 320 189 198 235 226 257 223 245 217 189 191 222 186 159 206 229 217 164 96 100 139 140 134 292 26 14 123 261 313 307 331 335 342 360 324 350 16 336 324 359 311 21 352 325 324 325 296
61 283 163 185 318 296 319 280 282 322 334 273 324 257 283 272 230 226 195 163 221 206 178 128 137 143 155 147 233 195 163 168 278 273 321 9 357 325 308 315 6 320 303 278 300 298 288 346 353 356 3 303 308 316
303 204 281 185 317 351 270 323 293 267 240 264 254 243 247 245 208 81 254 217 212 57 120 112 131 107 276 178 215 231 226 201 349 37 359 338 336 312 312 309 303 325 318 304 324 348 355 4 9 341 328 329 321 314
229 317 301 205 187 246 178 277 254 274 299 307 255 263 284 274 8 224 241 230 116 148 104 131 119 305 285 238 247 125 144 170 219 256 43 7 341 327 14 2 344 326 6 30 26 20 358 342 337 329 307 302 305 305
131 257 160 223 232 190 208 211 232 247 211 201 307 304 297 70 254 250 238 192 152 146 147 149 184 229 231 261 355 99 49 40 50 37 6 43 27 4 348 335 325 315 348 44 346 329 307 309 300 294 303 300 303 303
223 224 182 198 209 191 196 199 198 207 212 206 254 250 64 11 278 247 244 134 145 157 171 170 186 295 354 52 53 87 78 54 42 37 44 27 1 274 272 308 313 352 19 12 353 312 313 307 307 309 306 300 297 297
243 230 191 228 209 174 252 245 192 151 184 203 236 149 144 216 240 247 158 16 115 70 94 84 74 70 59 83 82 69 61 64 88 135 275 290 295 3 57 30 6 339 328 318 306 294 317 316 313 312 308 305 303 302
232 258 198 197 207 194 164 190 186 220 217 216 142 177 195 206 237 208 126 143 110 95 97 92 83 78 79 76 80 63 36 39 357 13 3 3 26 73 50 349 304 327 320 313 311 298 305 304 304 307 308 308 306 301
237 239 142 152 130 205 219 188 213 226 212 155 166 206 233 175 170 138 169 135 109 104 110 128 107 99 117 141 142 134 116 98 64 357 351 315 342 321 329 319 331 343 327 317 316 319 326 324 319 313 307 303 301 302
242 187 189 147 172 216 231 191 272 14 4 27 277 339 12 67 84 90 105 121 135 175 177 125 134 128 139 130 113 351 31 77 88 114 132 282 266 285 331 350 321 308 311 314 328 325 320 322 312 318 323 330 336 337
202 159 198 163 221 211 157 98 217 201 238 281 1 157 252 340 294 206 142 123 119 118 123 114 108 133 129 137 167 108 51 282 140 156 124 238 323 312 317 301 291 310 323 327 319 324 318 326 330 340 343 348 349 357
175 201 168 201 169 113 164 209 225 234 216 199 223 193 123 73 267 191 213 106 110 120 154 140 147 189 150 119 112 109 136 146 59 108 69 340 295 312 315 299 300 304 308 326 328 320 330 340 352 351 353 355 1 9
148 198 102 57 180 193 140 121 234 258 206 228 296 43 35 174 247 189 356 128 152 158 158 156 115 113 120 119 120 132 184 156 164 201 107 16 43 319 302 302 300 306 352 334 326 335 342 348 3 358 359 3 11 15